GW4921 Weather Reports


Display with metric or nautical units.
time (UTC)temp
F
wind
direction
speed
MPH
gust
MPH
rain 1hr
in
rain 24hr
in
rain mn
in
humidity
%
barometer
mb
20260509054400 86 36 4.0 6.0 0.00 0.00 0.01 91
20260509053901 86 59 2.0 3.0 0.00 0.00 0.01 92
20260509053400 86 102 5.0 7.0 0.00 0.00 0.01 93
20260509052900 86 114 3.0 3.0 0.00 0.00 0.01 93
20260509052400 86 105 5.0 6.0 0.00 0.00 0.01 92
20260509051900 86 63 2.0 2.0 0.00 0.00 0.01 92
20260509051400 86 103 3.0 5.0 0.00 0.00 0.01 92
20260509050902 86 51 3.0 5.0 0.00 0.00 0.01 92
20260509050400 86 71 0.0 1.0 0.00 0.00 0.01 93
20260509045900 85 78 1.0 2.0 0.00 0.00 0.01 94
20260509045400 84 58 3.0 3.0 0.00 0.00 0.01 94
20260509044900 84 107 2.0 2.0 0.00 0.00 0.01 95
20260509044400 84 67 1.0 1.0 0.00 0.00 0.01 95
20260509043900 84 352 0.0 1.0 0.00 0.00 0.01 95
20260509043400 83 111 1.0 1.0 0.00 0.00 0.01 96
20260509042901 83 33 3.0 3.0 0.00 0.00 0.01 96
20260509042401 83 35 3.0 5.0 0.00 0.00 0.01 96
20260509041900 83 43 3.0 3.0 0.00 0.00 0.01 96
20260509041401 82 92 3.0 5.0 0.00 0.00 0.01 97
20260509040900 82 58 2.0 3.0 0.00 0.00 0.01 97
20260509040401 82 70 0.0 0.0 0.00 0.00 0.01 97
20260509035900 81 59 1.0 2.0 0.00 0.00 0.01 97
20260509035400 81 56 2.0 2.0 0.00 0.00 0.01 97
20260509034900 81 5 2.0 2.0 0.00 0.00 0.01 97
20260509034400 81 33 3.0 5.0 0.00 0.00 0.01 97
20260509033900 81 69 3.0 3.0 0.00 0.00 0.01 97
20260509033400 81 96 0.0 1.0 0.00 0.00 0.01 97
20260509032901 80 37 1.0 1.0 0.00 0.00 0.01 97
20260509032400 81 56 2.0 3.0 0.00 0.00 0.01 97
20260509031904 80 93 0.0 0.0 0.00 0.00 0.01 98
20260509031400 80 64 0.0 1.0 0.00 0.00 0.01 98
20260509030901 80 3 1.0 2.0 0.00 0.00 0.01 98
20260509030400 80 29 2.0 2.0 0.00 0.00 0.01 98
20260509025900 80 32 1.0 2.0 0.00 0.00 0.01 99
20260509025400 80 16 1.0 3.0 0.00 0.00 0.01 99
20260509024901 80 71 1.0 1.0 0.00 0.00 0.01 99
20260509024401 79 74 2.0 2.0 0.00 0.00 0.01 99
20260509023900 79 50 4.0 5.0 0.00 0.00 0.01 99
20260509023406 80 50 1.0 2.0 0.00 0.00 0.01 99
20260509022901 80 96 3.0 3.0 0.00 0.00 0.01 99
20260509022400 81 351 5.0 6.0 0.00 0.00 0.01 99
20260509021901 81 12 1.0 2.0 0.00 0.00 0.01 99
20260509021401 81 51 2.0 2.0 0.00 0.00 0.01 99
20260509020900 81 69 0.0 0.0 0.00 0.00 0.01 99
20260509020400 81 62 2.0 2.0 0.00 0.00 0.01 99
20260509015901 81 67 1.0 1.0 0.00 0.00 0.01 99
20260509015400 81 350 3.0 5.0 0.00 0.00 0.01 99
20260509014900 81 85 2.0 2.0 0.00 0.00 0.01 99
20260509014401 81 13 3.0 3.0 0.00 0.00 0.01 99
20260509013901 81 22 2.0 2.0 0.00 0.00 0.01 99
20260509013401 81 31 4.0 5.0 0.00 0.00 0.01 99
20260509012900 81 342 5.0 6.0 0.00 0.00 0.01 99
20260509012401 81 19 1.0 2.0 0.00 0.00 0.01 99
20260509011903 80 97 0.0 1.0 0.00 0.00 0.01 99
20260509011402 80 43 2.0 3.0 0.00 0.00 0.01 99
20260509010900 80 351 1.0 2.0 0.00 0.00 0.01 99
20260509010400 80 33 1.0 2.0 0.00 0.00 0.01 99
20260509005900 80 26 1.0 2.0 0.00 0.00 0.01 99
20260509005400 80 32 2.0 2.0 0.00 0.00 0.01 99
20260509004902 80 350 3.0 3.0 0.00 0.00 0.01 99
20260509004400 80 9 1.0 2.0 0.00 0.00 0.01 99
20260509003901 80 32 1.0 1.0 0.00 0.00 0.01 99
20260509003400 80 4 2.0 2.0 0.00 0.00 0.01 99
20260509002901 80 16 4.0 6.0 0.00 0.00 0.01 99
20260508130900 84 106 4.0 7.0 0.00 0.00 0.00 90
20260508130400 84 87 7.0 8.0 0.00 0.00 0.00 90
20260508125901 84 79 3.0 5.0 0.00 0.00 0.00 91
20260508125401 84 41 3.0 6.0 0.00 0.00 0.00 91
20260508124901 84 64 0.0 1.0 0.00 0.00 0.00 91
20260508124400 85 44 3.0 5.0 0.00 0.00 0.00 91
20260508123900 85 54 4.0 5.0 0.00 0.00 0.00 90
20260508123401 85 108 3.0 3.0 0.00 0.00 0.00 90
20260508122900 85 104 3.0 5.0 0.00 0.00 0.00 89
20260508122401 85 39 2.0 5.0 0.00 0.00 0.00 89
20260508121900 85 121 4.0 6.0 0.00 0.00 0.00 88
20260508121400 85 146 1.0 1.0 0.00 0.00 0.00 88
20260508120901 85 133 3.0 5.0 0.00 0.00 0.00 87
20260508120401 85 124 1.0 2.0 0.00 0.00 0.00 87
20260508115900 86 122 3.0 5.0 0.00 0.00 0.00 86
20260508115400 86 76 4.0 6.0 0.00 0.00 0.00 86
20260508114900 86 74 4.0 6.0 0.00 0.00 0.00 86
20260508114400 86 348 3.0 7.0 0.00 0.00 0.00 86
20260508113901 86 58 2.0 6.0 0.00 0.00 0.00 86
20260508113401 86 106 6.0 9.0 0.00 0.00 0.00 86
20260508112900 86 104 1.0 2.0 0.00 0.00 0.00 87
20260508112401 86 94 4.0 5.0 0.00 0.00 0.00 87
20260508111903 86 82 3.0 6.0 0.00 0.00 0.00 87
20260508111401 86 90 2.0 2.0 0.00 0.00 0.00 87
20260508110902 86 134 1.0 1.0 0.00 0.00 0.00 86
20260508110400 87 81 1.0 1.0 0.00 0.00 0.00 86
20260508105900 86 35 4.0 6.0 0.00 0.00 0.00 86
20260508105400 87 35 4.0 6.0 0.00 0.00 0.00 85
20260508104900 87 93 3.0 5.0 0.00 0.00 0.00 84
20260508104400 87 146 3.0 3.0 0.00 0.00 0.00 83
20260508103900 88 149 4.0 7.0 0.00 0.00 0.00 80
20260508103400 88 143 5.0 7.0 0.00 0.00 0.00 78
20260508102900 88 99 7.0 9.0 0.00 0.00 0.00 77
20260508102400 88 81 7.0 10.0 0.00 0.00 0.00 77
20260508101901 88 82 0.0 1.0 0.00 0.00 0.00 78
20260508101400 88 47 7.0 9.0 0.00 0.00 0.00 78
20260508100900 88 52 1.0 1.0 0.00 0.00 0.00 78
20260508100400 88 38 6.0 9.0 0.00 0.00 0.00 79
20260508095900 88 138 2.0 2.0 0.00 0.00 0.00 79
20260508095401 87 119 0.0 1.0 0.00 0.00 0.00 80
20260508094901 87 51 4.0 5.0 0.00 0.00 0.00 82
20260508094402 87 26 7.0 8.0 0.00 0.00 0.00 83
20260508093902 87 137 4.0 6.0 0.00 0.00 0.00 84
20260508093400 88 81 2.0 5.0 0.00 0.00 0.00 84
20260508092900 87 40 5.0 7.0 0.00 0.00 0.00 84
20260508092400 87 75 2.0 3.0 0.00 0.00 0.00 85
20260508091901 87 120 2.0 3.0 0.00 0.00 0.00 85
20260508091400 87 74 2.0 6.0 0.00 0.00 0.00 87
20260508090900 87 54 7.0 9.0 0.00 0.00 0.00 86
20260508090400 87 38 2.0 5.0 0.00 0.00 0.00 85
20260508085900 87 81 4.0 6.0 0.00 0.00 0.00 84
20260508085401 87 130 6.0 7.0 0.00 0.00 0.00 84
20260508084900 87 127 2.0 5.0 0.00 0.00 0.00 85
20260508084400 87 132 1.0 2.0 0.00 0.00 0.00 85
20260508083900 86 68 2.0 2.0 0.00 0.00 0.00 85
20260508083401 86 86 4.0 5.0 0.00 0.00 0.00 84
20260508082900 86 67 5.0 7.0 0.00 0.00 0.00 85
20260508082400 86 80 5.0 9.0 0.00 0.00 0.00 84
20260508081900 86 107 3.0 5.0 0.00 0.00 0.00 84
20260508081400 86 71 6.0 7.0 0.00 0.00 0.00 85
20260508080900 86 68 6.0 9.0 0.00 0.00 0.00 86
20260508080400 86 64 6.0 11.0 0.00 0.00 0.00 86
20260508075900 86 127 3.0 6.0 0.00 0.00 0.00 87
20260508075400 87 28 3.0 5.0 0.00 0.00 0.00 88
20260508074901 87 102 3.0 3.0 0.00 0.00 0.00 87
20260508074400 87 93 3.0 5.0 0.00 0.00 0.00 88
20260508073901 86 105 4.0 6.0 0.00 0.00 0.00 88
20260508073400 87 124 4.0 6.0 0.00 0.00 0.00 87
20260508072900 87 112 4.0 6.0 0.00 0.00 0.00 87
20260508072401 86 128 6.0 8.0 0.00 0.00 0.00 88
20260508071901 87 106 3.0 3.0 0.00 0.00 0.00 88
20260508071401 87 117 6.0 9.0 0.00 0.00 0.00 87
20260508070900 87 168 9.0 13.0 0.00 0.00 0.00 87
20260508070402 87 126 1.0 2.0 0.00 0.00 0.00 89
20260508065900 87 155 3.0 6.0 0.00 0.00 0.00 88
20260508065402 87 94 4.0 5.0 0.00 0.00 0.00 87
20260508064901 87 48 4.0 7.0 0.00 0.00 0.00 88
20260508064400 87 52 2.0 3.0 0.00 0.00 0.00 89
20260508063900 86 89 2.0 3.0 0.00 0.00 0.00 89
20260508063400 87 91 6.0 10.0 0.00 0.00 0.00 89
20260508062900 87 128 9.0 11.0 0.00 0.00 0.00 89
20260508062400 86 76 5.0 7.0 0.00 0.00 0.00 90
20260508061903 87 104 4.0 6.0 0.00 0.00 0.00 91
20260508061401 87 152 7.0 8.0 0.00 0.00 0.00 91
20260508060903 87 128 11.0 16.0 0.00 0.00 0.00 89
20260508060401 87 131 5.0 8.0 0.00 0.00 0.00 88
20260508055900 87 80 5.0 8.0 0.00 0.00 0.00 88
20260508055400 87 61 3.0 8.0 0.00 0.00 0.00 89
20260508054901 88 68 4.0 7.0 0.00 0.00 0.00 90